EW9119 Weather Reports


time (UTC)temp
F
wind
direction
speed
knots
gust
knots
rain 1hr
in
rain 24hr
in
rain mn
in
humidity
%
barometer
mb
20260507014547 67 230 0.0 0.0 0.01 0.03 0.03 1 1009.3
20260507013033 67 230 0.0 0.0 0.01 0.03 0.03 1 1008.8
20260507011532 67 230 0.0 0.0 0.02 0.02 0.02 1 1009.0
20260507010029 67 230 0.0 0.0 0.02 0.02 0.02 1 1009.2
20260507004523 68 230 0.0 0.0 0.02 0.02 0.02 1 1009.2
20260507003019 68 230 0.0 0.0 0.02 0.02 0.02 10 1009.2
20260507001521 68 230 0.0 0.0 0.00 0.00 0.00 17 1009.0
20260507000009 69 230 0.0 0.0 0.00 0.00 0.00 22 1009.1
20260506234503 69 24 0.0 0.0 0.00 0.00 0.00 30 1008.4
20260506233124 70 344 0.0 0.0 0.00 0.00 0.00 37 1008.7
20260506231555 70 355 0.0 0.0 0.00 0.00 0.00 40 1008.8
20260506230052 70 20 0.0 0.0 0.00 0.00 0.00 42 1009.2
20260506224546 71 27 0.0 0.0 0.00 0.00 0.00 45 1009.4
20260506223041 71 273 0.0 0.0 0.00 0.00 0.00 47 1009.6
20260506221538 71 313 0.0 0.0 0.00 0.00 0.00 50 1009.4
20260506220036 72 337 0.0 0.0 0.00 0.00 0.00 54 1009.6
20260506214528 72 12 0.0 0.0 0.00 0.00 0.00 56 1009.2
20260506213024 72 336 0.0 0.0 0.00 0.00 0.00 55 1008.6
20260506211521 72 104 0.0 2.6 0.00 0.00 0.00 57 1008.5
20260506210015 72 319 0.0 0.0 0.00 0.00 0.00 56 1008.7
20260506204512 72 325 0.0 0.0 0.00 0.00 0.00 59 1008.9
20260506203009 72 140 0.0 0.0 0.00 0.00 0.00 56 1008.9
20260506201502 72 254 0.0 0.0 0.00 0.00 0.00 57 1009.3
20260506200058 72 259 0.0 0.0 0.00 0.00 0.00 57 1009.1
20260506194614 71 298 0.0 0.0 0.00 0.00 0.00 59 1009.2
20260506193057 71 183 0.0 0.0 0.00 0.00 0.00 50 1009.4
20260506191545 70 38 0.0 0.0 0.00 0.00 0.00 51 1009.4
20260506190041 70 87 0.0 0.0 0.00 0.00 0.00 32 1008.8
20260506184536 68 67 0.0 0.0 0.00 0.00 0.00 11 1009.2
20260506183031 68 103 0.0 0.0 0.00 0.00 0.00 1 1009.6
20260506181527 67 94 0.0 0.0 0.00 0.00 0.00 6 1010.0
20260506180024 68 339 0.0 0.0 0.00 0.00 0.00 10 1010.7
20260506174520 68 324 0.0 0.0 0.00 0.00 0.00 26 1011.1
20260506173020 68 342 0.0 0.0 0.00 0.00 0.00 44 1011.4
20260506171522 68 142 0.0 0.0 0.00 0.00 0.00 37 1011.3
20260506170020 67 5 0.0 0.0 0.00 0.00 0.00 32 1011.5
20260506164515 67 167 0.0 0.0 0.00 0.00 0.00 38 1011.7
20260506163030 67 157 0.0 0.0 0.00 0.00 0.00 36 1011.5
20260506161511 67 5 0.0 0.0 0.00 0.00 0.00 34 1011.4
20260506160018 66 173 0.0 0.0 0.00 0.00 0.00 47 1011.3
20260506154509 66 220 0.0 0.0 0.00 0.00 0.00 37 1010.8
20260506153008 66 12 0.0 0.0 0.00 0.00 0.00 39 1010.9
20260506151505 66 340 0.0 0.0 0.00 0.00 0.00 49 1011.1
20260506150007 66 73 0.0 0.0 0.00 0.00 0.00 57 1011.0
20260506144502 66 70 0.0 0.0 0.00 0.00 0.00 58 1010.6
20260506143002 65 311 0.0 0.0 0.00 0.00 0.00 59 1010.9
20260506141501 65 299 0.0 0.0 0.00 0.00 0.00 60 1010.8
20260506140001 65 18 0.0 0.0 0.00 0.00 0.00 57 1010.6
20260506134600 64 321 0.0 0.0 0.00 0.00 0.00 56 1010.6
20260506133100 64 250 0.0 0.0 0.00 0.00 0.00 54 1010.9
20260506131604 63 109 0.0 0.0 0.00 0.00 0.00 54 1010.9
20260506124559 63 192 0.0 0.0 0.00 0.00 0.00 54 1010.7
20260506123058 63 360 0.0 0.9 0.00 0.00 0.00 54 1011.1
20260506121557 62 355 0.0 0.0 0.00 0.00 0.00 53 1011.1
20260506120100 62 351 0.0 0.9 0.00 0.00 0.00 53 1010.7
20260506114605 62 108 0.0 0.9 0.00 0.00 0.00 51 1010.6
20260506113055 62 34 0.0 0.0 0.00 0.00 0.00 51 1010.4
20260506111655 62 5 0.0 0.0 0.00 0.00 0.00 52 1010.4
20260506110101 62 5 0.0 0.0 0.00 0.00 0.00 53 1010.2
20260506104552 62 17 0.0 0.9 0.00 0.00 0.00 54 1009.8
20260506103051 62 277 0.0 0.0 0.00 0.00 0.00 54 1010.0
20260506101601 62 309 0.0 0.9 0.00 0.00 0.00 53 1010.0
20260506100050 62 290 0.0 0.0 0.00 0.00 0.00 52 1009.9
20260506094607 62 36 0.0 0.0 0.00 0.00 0.00 52 1009.9
20260506093053 62 69 0.0 0.0 0.00 0.00 0.00 52 1010.1
20260506091547 62 13 0.0 0.0 0.00 0.00 0.00 53 1010.2
20260506090046 62 52 0.0 0.0 0.00 0.00 0.00 52 1010.2
20260506084546 62 80 0.0 0.0 0.00 0.00 0.00 54 1010.5
20260506083042 62 13 0.0 0.0 0.00 0.00 0.00 55 1010.5
20260506081541 63 19 0.0 0.0 0.00 0.00 0.00 55 1010.6
20260506073044 63 141 0.0 0.0 0.00 0.00 0.00 58 1010.5
20260506071539 63 98 0.0 0.0 0.00 0.00 0.00 59 1010.4
20260506061535 63 101 0.0 0.0 0.00 0.00 0.00 64 1010.8
20260506044527 65 153 0.0 0.0 0.00 0.00 0.00 61 1011.2
20260506043020 65 67 0.0 0.0 0.00 0.00 0.00 60 1011.1
20260506041520 66 144 0.0 0.0 0.00 0.00 0.00 60 1011.3
20260506040038 66 140 0.0 0.0 0.00 0.00 0.00 60 1011.1
20260506034517 66 102 0.0 0.0 0.00 0.00 0.00 59 1011.0
20260506033016 66 103 0.0 0.0 0.00 0.00 0.00 58 1011.0
20260506031530 66 32 0.0 0.0 0.00 0.00 0.00 59 1011.0
20260506030015 66 14 0.0 0.0 0.00 0.00 0.00 59 1011.2
20260506024519 66 136 0.0 0.0 0.00 0.00 0.00 59 1011.3
20260506023014 66 143 0.0 0.0 0.00 0.00 0.00 58 1011.4
20260506021514 66 144 0.0 0.0 0.00 0.00 0.00 57 1011.4
20260506020017 67 144 0.0 0.0 0.00 0.00 0.00 55 1011.5